Regional Weather Roundup
Issued by NWS

Home | Current Version | Previous Version | Text Only | Print | Product List | Glossary On
Versions: 1 2 3 4 5 6 7 8 9 10 11 12 13 14 15 16 17 18 19 20 21 22 23 24 25 26 27 28 29 30 31 32 33 34 35 36 37 38 39 40 41 42 43 44 45 46 47 48 49 50
000
ASUS44 KEWX 281510
RWRTX
SOUTH TEXAS REGIONAL WEATHER ROUNDUP
NATIONAL WEATHER SERVICE AUSTIN/SAN ANTONIO TX
900 AM CST WED JAN 28 2015

NOTE: "FAIR" INDICATED FEW OR NO CLOUDS BELOW 12,000 FEET WITH NO
SIGNIFICANT WEATHER AND/OR OBSTRUCTIONS TO VISIBILITY.

* - THESE STATIONS ARE NOT NWS OR FAA STATIONS...AND ARE NOT SUBJECT
    TO NWS AND FAA QUALITY CONTROL.

TXZ171-172-183>190-281600-
TEXAS HILL COUNTRY AND EDWARDS PLATEAU

CITY           SKY/WX    TMP DP  RH WIND       PRES   REMARKS
JUNCTION       SUNNY     45  37  73 W5        30.17R WCI  43
*LLANO         SUNNY     48  43  81 CALM      30.20R
BURNET         SUNNY     56  42  59 CALM      30.18R
*HORSESHOE BAY SUNNY     52  41  67 CALM      30.16S
*KERRVILLE     SUNNY     44  40  85 CALM      30.18R
*FREDERICKSBRG SUNNY     48  40  74 CALM      30.17R
*ROCKSPRINGS   SUNNY     63  36  36 S7        30.21R
*BOERNE STAGE  SUNNY     54  45  71 CALM      30.19R
*CASTROVILLE   SUNNY     50  41  70 NW6       30.19R WCI  48
HONDO          SUNNY     54  42  64 N5        30.19R
*UVALDE        SUNNY     55  40  56 CALM      30.18R
DEL RIO        SUNNY     53  41  63 W7        30.17R
LAUGHLIN AFB   SUNNY     56  41  56 E2        30.16R
CARRIZO SPRGS  SUNNY     54  43  66 E5        30.16R
$$

TXZ173-191>194-202-209-217>225-228-281600-
CENTRAL AND SOUTH CENTRAL TEXAS

CITY           SKY/WX    TMP DP  RH WIND       PRES   REMARKS
GEORGETOWN     SUNNY     52  43  71 CALM      30.16R
AUSTIN/BERGSTM MOSUNNY   52  44  74 CALM      30.17R
AUSTIN/MABRY   SUNNY     53  46  77 CALM      30.17R
*AUSTIN/EXEC   SUNNY     52  46  82 CALM      30.17S
*LAGO VISTA    SUNNY     60  35  38 SW7       30.17R
SAN MARCOS     SUNNY     48  41  76 CALM      30.17R
NEW BRAUNFELS  SUNNY     54  43  66 CALM      30.16R
RANDOLPH AFB   SUNNY     52  41  64 N2        30.17R
PT SAN ANTONIO SUNNY     53  41  62 NW5       30.16R
SAN ANTONIO    MOSUNNY   54  40  59 NW6       30.18R
STINSON FIELD  SUNNY     54  46  74 CALM      30.16R
*PLEASANTON    SUNNY     52  43  73 CALM      30.18R
*LA GRANGE     SUNNY     55  48  79 CALM      30.16R
*GIDDINGS      SUNNY     55  44  68 CALM      30.21R
*GONZALES      SUNNY     55  47  74 CALM      30.17S
$$

TXZ163>164-176>182-195>201-210>213-226-227-235-281600-
SOUTHEAST TEXAS

CITY           SKY/WX    TMP DP  RH WIND       PRES   REMARKS
COLLEGE STN    SUNNY     57  46  66 CALM      30.18R
*BRYAN         SUNNY     57  46  66 CALM      30.19R
*CALDWELL      SUNNY     54  46  76 CALM      30.21R
*CROCKETT      SUNNY     57  52  82 S3        30.22R
*BRENHAM       SUNNY     53  48  81 CALM      30.19R
HUNTSVILLE     SUNNY     62  48  60 S5        30.19R
CONROE         SUNNY     51  47  86 CALM      30.21R
HOUSTON BUSH   MOSUNNY   58  53  84 CALM      30.20R
HOUSTON HOBBY  SUNNY     60  50  69 CALM      30.19R
*HOUSTON SW AP SUNNY     51  47  86 CALM      30.20R
PEARLAND       SUNNY     58  50  75 CALM      30.21R
HOUSTON HOOKS  SUNNY     57  51  80 CALM      30.20R
ELLINGTON FLD  SUNNY     55  45  67 CALM      30.22R
SUGAR LAND     SUNNY     58  50  75 S3        30.19R
*HOUSTON EXEC    N/A    N/A N/A N/A MISG        N/A
*CLEVELAND MUN SUNNY     55  52  88 CALM      30.21R
*WHARTON       SUNNY     55  50  85 CALM      30.20R
*COLUMBUS      FAIR      55  47  76 CALM      30.18R
$$

TXZ214>216-236>238-281600-
THE UPPER TEXAS COAST

CITY           SKY/WX    TMP DP  RH WIND       PRES   REMARKS
*ORANGE        SUNNY     56  52  86 E3        30.23S
PORT ARTHUR    SUNNY     60  52  74 E8        30.21R
GALVESTON      SUNNY     61  56  83 CALM      30.21R
ANGLETON       SUNNY     56  52  86 CALM      30.20R
*BAY CITY      SUNNY     56  55  96 CALM      30.20R FOG
PALACIOS         N/A     59  54  83 SE3       30.20R
$$

TXZ229>234-239>247-281600-
TEXAS COASTAL BEND AND RIO GRANDE PLAINS

CITY           SKY/WX    TMP DP  RH WIND       PRES   REMARKS
VICTORIA       SUNNY     57  48  72 SW3       30.19R
*BEEVILLE      SUNNY     56  46  68 CALM      30.18R
ROCKPORT       HAZE      60  53  77 CALM      30.19R VSB 1/4
*PORT ARANSAS  SUNNY     60  56  84 S5        30.19R
*PORT LAVACA   SUNNY     55  50  83 CALM      30.20R
*INGLESIDE     SUNNY     58  56  93 CALM      30.19R
CORPUS CHRISTI FOG       52  51  97 S5        30.19R VSB 1/8
CORPUS NAS     MOSUNNY   61  57  87 S3        30.19R
*ROBSTOWN      FOG       53  53  99 S5        30.19R VSB<1/4
ALICE            N/A    N/A N/A N/A MISG      30.18R
KINGSVILLE NAS FOG       52  52 100 S5        30.19R VSB 1/16
COTULLA        SUNNY     59  41  51 SE3       30.16R
*FAITH RANCH   SUNNY     57  41  54 SE7       30.16R
LAREDO         SUNNY     59  41  51 SE3       30.18R
$$

TXZ248>255-281600-
DEEP SOUTH TEXAS

CITY           SKY/WX    TMP DP  RH WIND       PRES   REMARKS
BROWNSVILLE    FOG       59  59 100 S3        30.19R VSB 1/4
PORT ISABEL    PTSUNNY   60  59  96 S8        30.19R FOG
*SOUTH PADRE   SUNNY    N/A N/A N/A CALM      30.19R
HARLINGEN      CLOUDY    61  61 100 S10       30.18R FOG
*HEBBRONVILLE  SUNNY     60  41  49 S5        30.17R
MCALLEN        SUNNY     58  53  84 SE6       30.18R
*WESLACO       SUNNY     62  56  81 S8        30.18R
FALFURRIAS     CLOUDY    50  49  96 CALM      30.18R VSB 3/4
EDINBURG       SUNNY     59  57  92 S8        30.18R
*ZAPATA        SUNNY     60  42  53 SE5       30.15R
$$

TXZ213>215-236>238-242>244-246-247-251-254-255-281600-
CMAN STATIONS

STATION/POSITION TIME  TEMP    WIND        PRES    WAVE
                       AIR SEA DIR/SP/G            HT/PER
                 (UTC) (F)     (DEG/KT/KT) (MB)    (FT/S)
SABINE PASS      1500   57 54  120/  9/ 10 1023.1
SEA RIM ST PARK  1500   57     120/  7/  8 1023.7
NORTH JETTY/GLS  1500   61 56  140/  4/  5   N/A
EAGLE POINT      1500   56 56  170/  1/  2 1022.8
MORGANS POINT    1500   58     120/  4/  5 1022.6
MISSION/ARANSAS  1400   54     VRB  3      1022.0
PORT O`CONNOR    1500          210/  3/  3   N/A
PORT ARANSAS     1500   60 59  180/  5/  6 1022.9
MALAQUITE BEACH  1500   59 61  150/  4/  5 1021.7
BAFFIN BAY       1500   57     170/  4/  5 1022.2
PORT ISABEL      1500   59 58  160/  5/  6 1022.2
$$

GMZ080-GMZ150>470-281600-
OFFSHORE BUOY REPORTS

STATION/POSITION TIME  TEMP    WIND        PRES    WAVE
                       AIR SEA DIR/SP/G            HT/PER
                 (UTC) (F)     (DEG/KT/KT) (MB)    (FT/S)
20 E GALVESTON   1500   57 57  130/  4/  4 1022.5    1/ 5
90 E PT ARANSAS  1500   69 68  220/  4/  4 1023.0    1/ 3
35 NE PT MANSFLD 1500   67 67  190/ 14/ 16 1022.1    1/ 3
200 E PT ISABEL  1500   70 72  280/  4/  6 1023.4    2/ 5
$$



USA.gov is the U.S. government's official web portal to all federal, state and local government web resources and services.